AirNav   Everest Fuels
 
 939 users online  

8PS1 Bethlehem Steel Plant Heliport
Bethlehem, Pennsylvania, USA

GOING TO BETHLEHEM?


FAA INFORMATION EFFECTIVE 18 JUNE 2020

Location

FAA Identifier: 8PS1
Lat/Long: 40-36-45.3550N 075-20-48.6450W
40-36.755917N 075-20.810750W
40.6125986,-75.3468458
(estimated)
Elevation: 300 ft. / 91 m (estimated)
Variation: 12W (1985)
Time zone: UTC -4 (UTC -5 during Standard Time)
Zip code: 18015

Heliport Operations

Heliport use: Private use. Permission required prior to landing
Activation date: 01/1988
Control tower: no
ARTCC: NEW YORK CENTER
FSS: WILLIAMSPORT FLIGHT SERVICE STATION
Attendance: CONTINUOUS
Wind indicator: lighted
Segmented circle: no
Lights: SS-SR

Heliport Communications

WX ASOS at ABE (5 nm NW): 126.975 (610-266-3579)
WX AWOS-3 at XLL (7 nm W): 127.875 (610-231-3111)
WX AWOS-3 at UKT (11 nm S): 119.475 (215-538-7610)
WX AWOS-3 at CKZ (14 nm S): 126.325 (215-257-7291)
WX AWOS-3 at N40 (17 nm E): 121.725
WX ASOS at DYL (20 nm SE): 118.875 (215-345-0392)

Nearby radio navigation aids

VOR radial/distance  VOR name  Freq  Var
FJCr154/8.4ALLENTOWN VORTAC117.5010W
ETXr092/15.5EAST TEXAS VOR/DME110.2009W
PTWr032/25.4POTTSTOWN VORTAC116.5009W
BWZr256/26.4BROADWAY VOR/DME114.2011W
SBJr284/27.6SOLBERG VOR/DME112.9010W
ARDr327/29.4YARDLEY VOR/DME108.2010W
STWr234/31.6STILLWATER VOR/DME109.6011W

 
NDB name  Hdg/Dist  Freq  Var  ID
AMBLER006/29.327512WING .. -. --.

Heliport Services

Runway Information

Helipad H1

Dimensions: 65 x 65 ft. / 20 x 20 m
Surface: asphalt
Runway edge lights: PERI
Latitude: 40-36.755917N
Longitude: 075-20.810750W
Elevation: 300.0 ft.
Traffic pattern: leftleft

Heliport Ownership and Management from official FAA records

Ownership: Privately-owned
Owner: BETHLEHEM STEEL CORP
701 E. 3RD ST
BETHLEHEM, PA 18016
Phone 215-694-4506
Manager: JM ZAIA; ATTN: S A GAWLIK
BETHLEHEM STEEL, RM 349 SPDO
BETHLEHEM, PA 18016
Phone 215-694-7654

Additional Remarks

FOR CD CTC ALLENTOWN APCH AT 800-728-6322.

Instrument Procedures

There are no published instrument procedures at 8PS1.

Some nearby airports with instrument procedures:

KABE - Lehigh Valley International Airport (5 nm NW)
KXLL - Allentown Queen City Municipal Airport (7 nm W)
N43 - Braden Airpark (9 nm NE)
KUKT - Quakertown Airport (11 nm S)
KCKZ - Pennridge Airport (14 nm S)
N85 - Alexandria Airport (15 nm E)
N40 - Sky Manor Airport (17 nm E)
KDYL - Doylestown Airport (20 nm SE)
 
Loc | Ops | Rwys | IFR | FBO | Links
Com | Nav | Svcs | Stats | Notes
Area around 8PS1 (Bethlehem Steel Plant Heliport)
 
Road maps at: MapQuest Bing Google
 
Aerial photo
No photo
 
Sectional chart

 
Airport distance calculator
Flying to Bethlehem Steel Plant Heliport? Find the distance to fly.

From to 8PS1

Sunrise and sunset
Times for 07-Jul-2020
 Local
(UTC-4)
 Zulu
(UTC)
Morning civil twilight05:0609:06
Sunrise05:3909:39
Sunset20:3400:34
Evening civil twilight21:0601:06

Current date and time
Zulu (UTC)  08-Jul-2020 02:00:52
Local (UTC-4)  07-Jul-2020 22:00:52
 
METAR
KABE 
5nm NW 
080151Z 11008KT 10SM CLR 26/22 A3003 RMK AO2 SLP164 T02610217
KXLL 
7nm W 
080135Z AUTO 11005KT 10SM SCT035 BKN041 26/22 A3004 RMK AO2
KUKT 
11nm S 
080155Z AUTO 00000KT 10SM CLR 26/23 A3005 RMK A01
KCKZ 
14nm S 
080135Z AUTO 00000KT 10SM SCT028 BKN039 23/23 A3006 RMK AO2
KDYL 
20nm SE 
080154Z AUTO 16004KT 10SM CLR 25/22 A3003 RMK AO2 SLP163 T02500217
TAF
KABE 
5nm NW 
071739Z 0718/0818 VRB04KT P6SM FEW035 FM071900 15005KT P6SM BKN060 FM080100 VRB03KT P6SM BKN060 FM080800 VRB05KT P6SM BKN025 FM081600 VRB04KT P6SM BKN035
NOTAMs
Click for the latest NOTAMs
NOTAMs are issued by the DoD/FAA and will open in a separate window not controlled by AirNav.

 

 
 

Would you like to see your business listed on this page?

 If your business provides an interesting product or service to pilots, flight crews, aircraft, or users of the Bethlehem Steel Plant Heliport, you should consider listing it here.  To start the listing process, click on the button below
 
Add a business
 

Other Pages about Bethlehem Steel Plant Heliport

Update a link
 
Copyright © AirNav, LLC. All rights reserved. Privacy Policy  Contact